Location: Cossonay
(46.5833°N, 6.4167°E)
Time: 22:29:03
(UTC+00:00)

CBERS-1 - Pass Details

Date: 08 October 2020
Orbit: 770 x 777 km, 98.6° (Epoch: 22 October)

Event Time Altitude Azimuth Distance (km) Brightness Sun altitude
Rises 01:09:21 0° 22° (NNE) 3,261 8.0 -43.3°
Reaches altitude 10° 01:11:55 10° 33° (NNE) 2,330 7.1 -43.0°
Enters shadow 01:12:43 14° 38° (NE) 2,062 6.8 -42.9°
